map of MPL home
Great Circle Mapper logo
MPL - Airport
Location
City:  Montpellier Méditerranée, Languedoc-Roussillon, France
Name:Frejorgues
ICAO:LFMT
IATA:MPL

Details
Type:Airport (Aerodrome, Airfield)
Use:Public/Civil, International (customs port of entry)
Latitude:43°35'00"N (43.583333)
Longitude:3°57'41"E (3.961389)
Elevation:17 ft (5 m)
Variation:1.07°E (WMM2015 magnetic declination)
0.12° annual change
Runways:2
Longest:8530 × 164 ft (2600 × 50 m), paved

Time
Time Zone:UTC+1 (DST+2)
Local Time:

Weather
METAR:LFMT 010100Z AUTO 22008KT 9999 OVC046 15/12 Q1016 TEMPO RA
TAF:LFMT 312000Z 3121/0121 26012KT 9999 BKN045 BKN080
TEMPO 3121/0112 RA SCT030 BKN060
BECMG 0112/0114 29015KT CAVOK

Related Locations
Nearby:
Farthest:CHT: 12409 mi / 19970 km
Waitangi [Tuuta], Chatham Islands, NZ

Find:

   beyond  
but within

Other Information
Maps:
NOTAMs:
Links:
Sources:

  
flag of France
flag of Languedoc-Roussillon
  

Sectional Chart

Flight Planning
at skyvector.com

Satellite Image

Google Maps Satellite view

 

Copyright © 2004-2016 Karl L. Swartz. All rights reserved.
The Great Circle Mapper name and logo are trademarks of the Great Circle Mapper.
All other trademarks mentioned herein belong to their respective owners.
Please see credits for attibutions and further copyright information.

  Follow gcmap on Facebook Follow gcmap on Twitter Follow gcmap on Google+ GCmap on LinkedIn

hCard Microformat

Geo Microformat